User: anonymous   Login
Location: Nelson
(41.2830°S, 173.2830°E)
Time: 21:30:25
(UTC+12:00)
Language:

ATLAS CENTAUR R/B - Orbit

View from above orbital plane
View from above orbital plane
View from above satellite
View from above satellite

Ground track
Ground track

The orbit data is extracted from the following two-line orbital elements,

1 38770U 12048N   21215.06758111 0.00001000  00000-0  67073-4 0    01
2 38770  64.6490 302.0613 0143332 358.2182   1.7818 14.98491504    06
Epoch (UTC): 03 August 2021 01:37:19
Eccentricity: 0.0143332
inclination: 64.6490°
perigee height: 472 km
apogee height: 671 km
right ascension of ascending node: 302.0613°
argument of perigee: 358.2182°
revolutions per day: 14.98491504
mean anomaly at epoch: 1.7818°
orbit number at epoch: 0

The dashed part of the orbit path shows where the satellite is in the earth's shadow,  

DLR